Temp_Advection
nan nan nan nan nan nan nan nan nan nan nan nan nan nan nan nan nan nan nan nan nan nan nan nan nan nan nan nan nan nan nan nan nan nan nan nan nan nan nan nan nan nan nan nan
nan -0 0 0 -0 -0 -0 -0 -0 0 1 0 0 -0 -0 -0 0 0 0 0 0 0 0 0 0 0 0 0 0 0 0 0 -0 0 -0 -0 0 0 0 -0 -0 -0 -0 nan
nan 0 0 -0 0 -0 -0 0 0 0 0 0 -0 -0 -0 -0 0 -0 0 0 -0 0 0 0 0 0 0 0 0 0 0 0 -0 -0 0 -0 0 -0 -0 -0 -0 -0 -1 nan
nan 0 -0 -0 -0 0 -0 -0 0 0 0 -0 0 0 -0 -0 0 0 0 0 0 0 0 0 0 0 0 0 0 -0 0 0 0 0 -0 -0 -0 -0 -0 0 -0 -0 -0 nan
nan 0 0 -0 -0 0 -0 -0 0 0 0 0 0 0 -0 -0 0 -0 0 -0 0 0 -0 0 0 -0 0 0 0 0 0 0 0 -0 -0 -0 -0 -0 -0 -0 0 -0 0 nan
nan 0 -0 -0 0 -0 -0 -0 -0 -0 -0 0 -0 -0 -0 -0 0 -0 -0 0 0 -0 -1 -1 -0 0 0 0 0 -0 0 0 -0 -0 0 -0 -0 -0 -0 -0 -0 0 -0 nan
nan -0 0 0 -0 -0 0 -0 -0 0 0 -0 -0 0 0 0 0 0 0 0 -0 -0 -0 0 0 0 0 0 -0 0 0 0 0 0 0 -1 -0 0 -0 0 0 1 0 nan
nan 0 0 -0 0 0 0 -1 -0 0 0 0 0 0 -0 -0 0 1 0 -0 -0 0 0 -0 0 -0 -0 0 -0 0 -0 0 0 0 -0 -1 -0 0 0 0 0 0 0 nan
nan -0 0 1 -0 0 0 -0 -0 -0 -0 -0 -0 0 0 0 0 0 -0 0 1 1 0 -0 -0 -0 -0 -0 0 -0 0 0 -0 -0 -0 -0 0 0 0 -0 0 0 0 nan
nan -0 -0 0 0 0 -0 0 0 -0 -0 -0 -0 0 -0 0 -0 -0 0 0 0 1 -0 -0 -0 -0 0 0 0 0 0 0 -0 -0 -0 0 0 0 0 0 0 -0 0 nan
nan -0 -0 -0 -0 0 1 -0 0 -0 -0 -0 -0 -0 -0 0 -0 -0 0 -0 0 0 -0 0 0 0 0 0 0 0 -0 0 0 -0 -0 1 -0 0 -0 -0 -0 -0 -0 nan
nan -0 -0 -0 -0 0 0 -0 0 0 -0 -0 -0 -1 -0 -1 -1 1 -0 0 -0 -0 0 0 0 0 0 0 0 -0 -0 0 0 0 0 -0 -0 -0 -0 0 -0 -0 -0 nan
nan 0 -0 -0 -0 -0 0 0 0 0 -0 -0 -1 -1 1 -0 -1 1 0 0 -0 0 0 0 0 0 0 0 0 0 -0 0 0 0 0 -0 -0 -0 0 0 0 0 0 nan
nan -0 0 0 -0 -0 0 0 1 0 0 -0 -0 -0 0 -0 1 0 -1 1 0 0 1 0 0 0 0 0 -0 0 0 0 0 -0 -0 -0 -1 -1 0 0 0 0 0 nan
nan -0 -0 -0 -0 -0 0 0 0 0 0 -0 -0 -0 -0 -0 0 0 1 0 0 0 0 0 0 0 -0 0 0 -0 -0 -0 -0 -0 -1 -0 -0 -0 1 0 0 0 0 nan
nan -0 -0 -0 -0 0 -0 -0 -0 0 0 0 0 -0 0 0 0 0 -0 0 0 0 0 0 0 0 0 -0 -0 -0 -2 -1 -0 -0 0 1 0 -0 0 1 1 1 1 nan
nan -0 -0 -0 0 -0 0 0 0 0 0 0 0 0 0 0 0 0 0 0 0 0 0 0 0 0 0 0 0 -0 -0 1 1 1 1 0 0 0 0 1 1 1 1 nan
nan -0 -0 -0 0 0 -0 -0 0 -0 0 0 0 0 0 0 0 0 0 0 0 0 0 0 0 0 0 0 -0 -0 0 1 1 1 0 -0 0 0 1 1 1 1 1 nan
nan -0 0 0 0 -0 -0 -0 0 0 0 0 -0 -0 -0 0 0 0 0 0 0 0 0 0 0 0 -0 -0 -0 0 0 0 0 0 0 1 1 1 1 1 1 1 0 nan
nan 0 0 0 0 0 -0 0 0 0 1 1 0 -0 0 0 0 0 0 0 0 0 0 0 0 0 -0 -0 -0 -0 0 0 0 -0 -0 0 0 0 0 0 0 0 0 nan
nan -0 -0 0 1 1 1 0 0 0 -0 0 0 0 0 0 -0 0 -0 0 0 0 0 0 0 0 -0 -0 -0 -0 0 0 0 0 -0 0 0 0 0 0 0 0 0 nan
nan -1 -1 1 0 0 -0 -0 -0 0 0 0 0 0 0 0 -0 0 0 0 0 0 -0 0 0 -0 -0 -0 -0 0 0 1 1 0 0 0 0 0 0 0 0 0 0 nan
nan -0 -0 0 0 0 0 0 0 -0 0 0 -0 0 0 0 0 0 0 0 0 -0 -0 0 0 -0 -0 0 0 0 0 0 0 0 0 0 0 0 0 0 0 -0 -0 nan
nan -0 -0 0 -0 0 0 0 -0 0 0 0 -0 0 0 -0 -0 -0 -0 -0 -0 -0 -0 -0 -0 -0 -0 0 0 0 0 0 0 0 0 0 0 0 -0 0 0 -0 -0 nan
nan -0 -0 -0 0 -0 0 0 0 0 0 0 -0 -0 -0 -0 -0 -0 0 -0 0 -0 -0 -0 0 -0 0 0 0 0 0 0 0 0 0 0 -0 -0 -0 0 0 0 -0 nan
nan -1 -0 0 0 -0 0 -0 0 0 0 0 0 -0 0 -0 0 0 0 0 0 0 -0 0 0 0 -0 -0 -0 -0 -0 -0 -0 -0 -0 -0 -0 0 -1 -1 -0 1 1 nan
nan nan nan nan nan nan nan nan nan nan nan nan nan nan nan nan nan nan nan nan nan nan nan nan nan nan nan nan nan nan nan nan nan nan nan nan nan nan nan nan nan nan nan nan
Wind_Speed
16 15 18 12 15 6 10 8 3 7 13 7 5 5 5 6 4 7 5 4 7 5 4 5 8 9 8 4 8 4 4 3 4 8 2 2 2 7 6 3 5 3 2 8
15 12 11 15 15 11 11 7 9 12 14 4 3 1 1 6 6 5 5 7 7 5 7 4 5 4 1 4 5 3 3 3 3 4 1 2 5 5 5 4 2 6 4 7
17 14 12 11 12 15 18 9 2 4 13 10 3 8 6 10 9 4 9 4 3 3 6 8 3 5 3 2 3 4 5 3 6 11 3 3 4 6 7 9 3 7 13 22
22 20 17 18 14 14 18 11 4 9 3 6 11 2 3 2 6 7 8 4 9 7 5 6 6 4 3 3 4 1 1 6 6 8 6 5 5 6 11 11 14 9 21 12
21 16 14 16 16 17 22 9 5 8 3 6 14 13 10 12 7 4 4 3 6 6 8 9 6 5 4 5 3 6 4 3 3 5 8 11 17 16 15 18 15 17 23 22
19 21 20 16 17 22 21 24 28 13 8 6 6 8 16 16 13 10 22 14 5 7 14 20 18 12 7 6 4 5 4 3 2 11 4 6 11 16 17 14 14 15 17 24
23 22 22 23 22 20 27 19 18 11 4 10 13 8 18 15 16 15 6 17 16 14 12 6 3 4 8 12 15 15 5 3 2 3 2 10 7 2 7 17 17 13 8 7
22 26 20 24 26 28 27 28 22 15 9 11 8 16 11 18 18 16 15 14 8 9 9 2 0 1 2 7 12 14 17 9 5 6 5 11 13 5 6 7 7 8 14 6
26 26 25 26 27 24 23 30 30 20 7 15 23 10 14 7 5 3 14 22 17 14 4 3 6 6 6 4 3 4 8 12 9 8 7 7 2 3 5 4 6 6 6 5
25 26 26 26 27 30 28 26 23 25 9 8 17 11 11 11 9 3 4 9 9 23 5 7 5 5 6 5 6 5 4 5 16 15 11 4 7 7 5 2 6 6 7 8
22 22 23 25 25 25 28 30 26 22 18 21 24 26 12 8 19 6 7 4 6 4 6 4 3 5 6 4 6 7 8 7 5 4 7 11 8 5 6 4 8 9 10 10
22 22 22 22 23 24 23 29 29 26 24 13 11 26 37 38 33 22 16 5 9 12 4 3 2 3 3 4 5 1 5 7 5 8 6 1 22 5 14 10 11 12 12 11
24 24 24 21 23 22 24 30 26 19 13 15 24 24 27 33 33 30 12 13 12 8 6 4 2 3 3 4 4 2 4 5 3 2 4 7 12 18 10 14 9 10 12 12
25 25 23 22 22 22 22 26 26 19 5 3 7 10 23 30 37 34 39 29 19 14 14 6 2 2 9 3 2 5 5 8 6 5 4 5 10 18 20 16 14 13 12 13
27 27 26 24 23 23 22 27 24 18 11 3 4 7 11 16 22 27 29 23 19 11 7 3 4 5 4 1 1 4 10 8 5 6 10 7 9 10 20 20 21 16 15 15
32 30 28 27 25 22 21 14 24 23 18 4 2 5 10 15 18 20 23 24 20 16 7 3 6 7 10 4 4 7 20 17 20 6 9 13 13 9 11 21 18 15 14 13
30 29 28 27 24 22 21 5 5 11 22 7 3 3 3 9 9 10 12 15 9 7 4 5 4 5 7 2 4 5 13 18 17 16 12 7 9 5 10 15 15 16 16 15
35 28 26 23 21 20 26 23 13 5 19 9 3 1 3 12 5 4 7 5 5 3 2 2 3 4 2 4 5 8 11 13 15 13 11 8 6 9 11 12 15 16 16 15
45 32 24 20 17 19 21 17 18 23 12 4 2 4 4 12 4 3 4 4 1 3 2 3 6 2 5 4 9 14 15 10 9 11 9 8 10 12 13 14 15 15 13 10
29 30 15 9 11 17 12 12 8 10 11 8 3 6 1 6 4 3 5 4 2 2 1 4 3 3 6 6 6 6 8 13 11 15 12 13 13 14 13 12 11 9 8 7
36 10 6 13 18 14 9 6 4 2 1 5 3 5 4 8 3 3 6 2 2 2 2 2 2 3 3 4 10 12 7 10 13 9 9 9 10 13 12 10 9 8 7 6
15 17 20 22 5 3 3 1 1 2 3 5 6 5 5 6 5 2 3 2 2 3 2 2 3 3 6 5 0 4 9 13 15 7 8 10 11 11 10 9 8 8 9 11
19 7 6 1 2 3 4 5 3 1 3 5 5 3 4 4 3 3 2 3 2 3 2 3 4 5 4 3 9 12 12 11 10 11 10 10 9 8 8 9 10 13 16 18
5 4 4 0 1 1 2 2 2 1 3 10 11 5 2 3 2 1 3 2 2 2 1 4 2 6 2 6 7 8 7 7 7 7 7 8 10 12 14 17 19 22 26 27
5 3 2 1 1 2 1 3 3 3 10 9 8 5 3 2 3 2 3 2 2 4 4 2 4 7 3 5 4 5 5 7 9 11 13 15 18 21 25 26 28 30 32 33
4 6 3 0 2 3 5 7 6 5 6 4 2 3 3 2 1 2 3 5 4 2 2 2 4 6 6 3 3 6 9 12 16 18 21 24 27 30 32 35 37 38 37 36
4 4 9 7 7 5 5 5 5 4 1 1 3 4 3 1 3 1 2 4 2 4 5 5 7 10 12 14 16 17 20 23 25 28 31 33 33 34 35 38 38 35 34 34
Wind_Direction
268 268 249 262 251 260 238 224 201 210 220 201 221 224 189 169 210 202 204 155 188 226 226 238 230 227 202 177 157 199 218 176 233 215 9 23 163 191 168 162 231 240 191 268
270 265 275 262 267 245 228 240 240 200 211 232 211 266 233 227 183 193 172 212 202 179 212 241 232 203 258 192 182 186 211 229 296 298 70 105 201 199 187 104 86 201 212 265
249 253 267 267 249 252 240 203 231 204 204 227 228 255 259 249 226 233 198 201 123 179 202 202 228 221 188 207 204 171 198 221 208 249 237 121 199 189 191 190 169 253 231 266
245 246 252 253 240 242 222 249 220 189 196 207 214 207 9 268 220 221 216 207 211 183 232 220 224 218 229 229 193 70 167 242 220 254 267 264 241 213 185 197 219 211 269 241
261 249 248 251 244 235 220 243 212 175 179 189 206 209 219 245 248 149 259 242 218 226 244 240 223 194 190 213 175 176 182 272 208 264 235 253 264 250 230 233 240 240 250 268
257 260 253 237 241 231 231 234 248 280 198 191 191 206 215 222 223 247 253 247 227 214 231 245 262 260 192 200 205 215 222 203 202 272 216 277 271 239 218 225 229 225 241 246
251 254 248 253 238 241 238 241 240 237 263 216 221 220 208 213 205 213 219 225 231 251 256 235 233 246 240 229 224 192 205 223 209 251 113 262 265 278 222 216 238 219 254 255
258 254 253 251 254 241 249 251 256 229 245 256 227 226 219 228 225 222 238 240 236 233 166 97 231 294 297 231 227 215 206 224 249 251 233 282 286 207 195 173 257 206 224 240
252 254 256 251 251 241 247 260 261 271 240 228 234 232 222 226 196 165 229 234 231 184 149 163 189 211 197 222 268 21 210 225 239 229 237 250 254 188 151 121 275 209 172 164
254 257 257 253 254 263 256 256 257 256 279 252 218 214 205 189 186 205 182 198 185 201 202 214 190 216 188 204 196 184 179 208 224 234 246 241 252 148 135 163 271 160 178 180
252 256 258 259 259 256 253 265 250 253 261 264 264 236 216 204 202 194 162 134 193 171 214 222 214 199 200 195 201 181 178 180 206 229 254 266 142 108 178 192 154 166 168 179
253 261 258 260 261 259 251 250 262 248 253 271 257 254 250 240 242 238 187 220 176 190 196 186 184 221 155 182 239 84 215 195 184 194 213 5 181 207 208 196 184 187 192 189
253 255 259 266 263 257 251 256 259 250 271 262 260 261 248 234 234 238 225 206 207 199 187 158 165 195 153 189 242 226 257 170 221 127 213 217 218 225 227 214 211 205 201 192
254 256 258 261 264 259 251 247 247 228 234 258 264 271 251 241 231 236 239 242 218 213 199 188 156 191 192 219 267 213 192 145 196 258 275 288 255 237 232 221 211 202 199 204
252 253 256 254 262 262 258 252 249 241 208 280 284 273 263 274 248 231 232 239 221 180 163 198 201 179 150 187 129 242 188 191 180 224 210 212 248 262 232 217 214 212 203 199
254 255 254 252 258 258 262 228 240 238 228 233 268 261 229 229 238 247 244 240 239 217 199 176 211 196 175 190 215 247 216 220 229 237 245 237 253 259 241 226 217 209 205 214
250 250 251 253 252 245 232 222 174 198 215 215 229 231 256 215 214 222 228 234 228 221 198 208 195 192 194 213 228 208 204 218 224 231 231 231 230 232 214 208 209 198 193 191
244 241 243 245 242 242 247 239 230 238 203 203 208 219 157 177 186 190 186 187 194 228 230 169 175 164 216 248 231 210 194 200 215 224 219 231 211 204 199 196 190 186 183 187
236 235 226 220 223 223 237 248 243 242 225 275 98 165 210 167 150 150 151 170 177 201 210 196 163 169 224 239 220 211 201 193 199 191 199 180 181 172 167 174 176 186 181 190
212 189 181 182 211 220 232 236 217 209 203 210 171 160 178 155 137 150 135 197 202 210 207 153 226 255 267 256 247 230 217 214 198 166 156 169 171 174 174 178 182 187 195 209
157 141 123 151 161 159 188 204 161 174 325 194 140 153 144 180 130 165 204 167 153 190 218 202 246 268 251 291 255 242 228 203 201 209 216 201 202 188 185 184 190 198 213 235
148 139 125 143 186 143 118 32 80 165 214 162 152 159 142 144 159 132 162 158 144 221 122 87 264 258 321 321 231 187 187 182 183 181 174 175 180 184 188 196 213 237 257 273
113 85 114 160 273 84 166 197 276 265 172 166 153 118 120 113 100 95 127 155 157 108 86 234 235 311 337 143 131 132 140 154 164 166 173 181 191 205 225 246 265 276 280 286
75 72 65 76 78 307 173 165 161 130 165 145 129 91 101 118 82 41 112 56 99 69 3 241 258 337 349 174 158 153 157 170 187 204 222 234 248 260 269 276 282 285 286 289
89 72 86 55 266 237 158 114 96 56 142 129 110 82 88 52 104 38 111 74 255 203 228 237 353 10 28 179 198 213 232 245 247 255 264 270 276 279 279 280 283 284 285 286
72 55 84 153 79 50 56 75 72 74 121 113 118 110 92 74 101 118 204 144 220 256 235 344 36 26 26 11 289 271 268 270 272 274 277 280 280 283 285 285 284 284 286 286
64 42 56 83 73 64 44 47 20 24 229 142 111 68 201 95 53 352 205 192 241 328 336 321 315 313 310 303 295 291 287 283 280 279 278 279 281 283 282 281 284 285 284 281
Height
1502 1502 1504 1506 1509 1511 1513 1511 1513 1511 1514 1515 1511 1505 1506 1504 1505 1508 1510 1511 1515 1519 1520 1516 1517 1517 1518 1516 1516 1522 1521 1528 1530 1522 1516 1518 1519 1524 1526 1527 1538 1544 1543 1513
1499 1499 1500 1502 1503 1507 1509 1508 1507 1507 1511 1506 1506 1506 1505 1504 1505 1505 1506 1509 1509 1510 1514 1519 1513 1512 1512 1512 1514 1517 1519 1525 1524 1515 1512 1512 1514 1517 1516 1521 1528 1534 1537 1498
1496 1497 1498 1500 1501 1503 1506 1504 1503 1504 1503 1505 1504 1504 1504 1505 1505 1504 1504 1505 1507 1510 1509 1510 1510 1512 1512 1512 1511 1513 1516 1519 1516 1506 1507 1510 1510 1505 1507 1509 1524 1511 1505 1488
1491 1494 1495 1498 1498 1501 1504 1499 1493 1495 1500 1501 1502 1503 1500 1502 1504 1505 1504 1503 1502 1505 1508 1509 1508 1510 1510 1510 1511 1514 1516 1512 1515 1509 1512 1513 1507 1498 1499 1505 1499 1506 1484 1496
1485 1489 1490 1492 1494 1499 1497 1498 1492 1491 1492 1493 1497 1497 1498 1499 1500 1504 1504 1502 1502 1503 1503 1504 1506 1507 1509 1510 1509 1511 1512 1507 1512 1508 1505 1510 1503 1499 1498 1490 1491 1493 1486 1482
1482 1484 1486 1487 1490 1491 1490 1492 1491 1490 1485 1486 1490 1489 1487 1486 1492 1498 1501 1500 1501 1501 1497 1497 1499 1499 1502 1507 1509 1510 1510 1507 1511 1497 1502 1503 1497 1490 1489 1481 1478 1478 1486 1468
1477 1479 1480 1483 1484 1485 1484 1486 1489 1488 1480 1479 1477 1476 1482 1484 1485 1488 1491 1493 1495 1494 1492 1494 1495 1497 1498 1500 1504 1501 1504 1504 1504 1502 1502 1497 1476 1474 1472 1469 1470 1472 1469 1467
1471 1473 1473 1477 1478 1478 1479 1479 1480 1480 1476 1478 1477 1478 1478 1479 1481 1484 1486 1487 1487 1489 1493 1496 1498 1500 1498 1492 1491 1496 1493 1499 1497 1495 1500 1482 1470 1469 1471 1470 1468 1465 1466 1464
1464 1466 1468 1470 1471 1472 1473 1471 1474 1474 1466 1463 1468 1472 1475 1475 1476 1481 1479 1481 1483 1486 1488 1491 1492 1490 1487 1486 1487 1487 1490 1492 1495 1491 1481 1476 1466 1462 1461 1464 1472 1459 1461 1464
1457 1459 1461 1463 1464 1464 1465 1465 1471 1469 1464 1459 1463 1466 1465 1469 1470 1472 1474 1474 1478 1481 1478 1479 1478 1481 1476 1478 1478 1486 1487 1486 1482 1477 1472 1463 1463 1463 1464 1472 1462 1456 1459 1463
1451 1452 1453 1457 1458 1458 1459 1457 1462 1463 1459 1455 1460 1461 1460 1463 1464 1464 1468 1473 1470 1474 1469 1471 1472 1468 1469 1472 1468 1475 1476 1479 1477 1475 1470 1464 1455 1463 1464 1456 1454 1455 1457 1460
1445 1445 1448 1450 1450 1453 1454 1450 1454 1455 1454 1452 1449 1452 1454 1455 1460 1460 1459 1459 1461 1461 1463 1463 1465 1462 1463 1463 1464 1465 1468 1462 1466 1467 1456 1451 1450 1451 1451 1450 1450 1451 1453 1456
1438 1442 1443 1441 1445 1445 1448 1448 1449 1449 1446 1444 1444 1444 1446 1447 1449 1453 1455 1451 1454 1453 1454 1457 1459 1460 1464 1465 1464 1463 1457 1455 1459 1457 1447 1448 1448 1449 1449 1449 1449 1450 1454 1454
1431 1434 1434 1438 1439 1440 1441 1441 1440 1443 1443 1442 1435 1431 1439 1439 1439 1442 1446 1446 1446 1449 1450 1452 1454 1457 1456 1457 1454 1455 1449 1451 1451 1451 1444 1445 1443 1444 1444 1445 1447 1449 1450 1453
1424 1427 1428 1432 1433 1432 1433 1434 1434 1436 1441 1436 1432 1430 1434 1435 1434 1433 1435 1437 1436 1436 1441 1447 1447 1447 1449 1455 1455 1453 1442 1440 1443 1440 1434 1436 1437 1438 1440 1441 1442 1444 1447 1451
1415 1418 1421 1424 1427 1430 1430 1427 1429 1429 1431 1435 1432 1429 1426 1427 1430 1432 1432 1433 1435 1435 1435 1435 1437 1437 1440 1445 1442 1427 1426 1427 1427 1429 1431 1432 1433 1434 1435 1436 1439 1442 1446 1449
1406 1410 1414 1418 1421 1425 1425 1426 1421 1421 1429 1432 1428 1426 1424 1425 1425 1429 1430 1431 1431 1432 1430 1435 1435 1436 1436 1434 1436 1420 1418 1421 1424 1426 1426 1428 1429 1429 1430 1433 1438 1440 1443 1447
1395 1402 1407 1412 1416 1420 1420 1417 1419 1422 1423 1421 1419 1421 1423 1424 1427 1429 1429 1430 1430 1430 1431 1433 1434 1436 1434 1430 1416 1417 1417 1418 1420 1422 1424 1425 1426 1428 1430 1433 1436 1439 1442 1445
1381 1394 1403 1408 1410 1412 1410 1415 1417 1419 1425 1418 1414 1421 1423 1421 1425 1427 1428 1429 1431 1432 1431 1431 1432 1431 1426 1413 1413 1414 1413 1415 1418 1420 1422 1423 1425 1427 1429 1432 1436 1438 1441 1444
1368 1391 1392 1398 1403 1406 1409 1412 1414 1413 1411 1412 1412 1416 1418 1420 1422 1425 1430 1430 1429 1432 1429 1429 1428 1420 1413 1413 1414 1413 1413 1414 1416 1417 1421 1423 1425 1427 1430 1433 1435 1438 1440 1442
1368 1376 1387 1394 1399 1404 1407 1405 1405 1407 1408 1407 1409 1410 1415 1418 1423 1425 1425 1424 1424 1426 1430 1429 1428 1420 1412 1410 1409 1410 1412 1413 1415 1418 1420 1422 1425 1427 1430 1432 1435 1437 1438 1440
1369 1375 1388 1397 1399 1400 1402 1404 1406 1405 1406 1406 1407 1410 1412 1415 1416 1417 1420 1421 1425 1425 1430 1435 1430 1417 1411 1409 1407 1407 1409 1412 1416 1418 1420 1422 1425 1428 1430 1431 1433 1435 1436 1437
1376 1383 1391 1397 1400 1400 1400 1406 1409 1407 1402 1403 1405 1408 1410 1413 1415 1416 1418 1420 1422 1427 1433 1429 1422 1413 1412 1412 1410 1411 1413 1415 1417 1419 1421 1423 1425 1427 1428 1429 1430 1431 1431 1431
1381 1386 1396 1398 1395 1401 1400 1402 1401 1402 1401 1402 1403 1407 1409 1412 1415 1417 1418 1425 1426 1439 1448 1432 1419 1414 1413 1413 1413 1414 1415 1417 1419 1420 1422 1423 1424 1424 1425 1425 1426 1425 1424 1424
1386 1390 1397 1400 1400 1400 1399 1399 1400 1401 1401 1402 1404 1408 1410 1413 1416 1420 1422 1426 1432 1433 1429 1420 1416 1414 1412 1413 1414 1416 1417 1417 1418 1418 1419 1419 1419 1419 1418 1419 1418 1416 1415 1414
1391 1396 1401 1400 1399 1400 1399 1400 1401 1402 1403 1404 1405 1409 1412 1416 1417 1420 1417 1422 1426 1419 1418 1416 1416 1415 1415 1415 1415 1415 1415 1415 1414 1414 1414 1413 1412 1411 1409 1408 1407 1406 1405 1403
1396 1402 1402 1402 1402 1404 1404 1404 1404 1404 1404 1405 1406 1416 1419 1424 1431 1429 1427 1429 1421 1418 1417 1417 1416 1416 1415 1413 1412 1411 1410 1410 1409 1408 1406 1404 1403 1401 1399 1396 1396 1395 1394 1391